This demonstration page uses our WeatherBlox Daily Observations layout. Learn more.

Left ArrowRight Arrow

Hourly Observations for March 26, 2018

Temp ( °F °C ) Dew Point ( °F °C ) Humidity (%) Winds ( mph kmh ) Pressure ( in mb ) Visibility ( mi km ) Precip ( " mm )
12:53 am 00:53 Cloudy 36 2.2 35 1.7 97 97 ESE 13 20 29.97 1015 7 11 0.00 0.00
1:53 am 01:53 Cloudy with Mist and Fog 36 2.2 35 1.7 97 97 E 12 19 29.96 1015 5 8 0.00 0.00
3:53 am 03:53 Cloudy with Mist and Fog 36 2.2 35 1.7 97 97 E 9 15 29.95 1014 3 5 0.00 0.00
3:59 am 03:59 Cloudy with Light Rain 36 2 36 2 100 100 E 8 13 29.97 1015 3 4 0.00 0.00
4:34 am 04:34 Cloudy with Light Rain 35 1.7 35 1.7 100 100 ENE 9 15 29.94 1014 2 3 0.02 0.51
4:53 am 04:53 Cloudy with Light Rain 35 1.7 35 1.7 100 100 ENE 10 17 29.92 1013 2 3 0.03 0.76
5:53 am 05:53 Cloudy with Light Rain 35 1.7 35 1.7 100 100 ENE 8 13 29.94 1014 2 2 0.00 0.03
6:23 am 06:23 Cloudy with Mist and Fog 35 1.7 35 1.7 100 100 ENE 9 15 29.97 1015 2 3 0.01 0.25
6:53 am 06:53 Cloudy with Mist and Fog 35 1.7 35 1.7 100 100 ENE 9 15 29.93 1014 2 3 0.01 0.25
7:25 am 07:25 Cloudy with Mist and Fog 35 1.7 35 1.7 100 100 E 7 11 29.97 1015 3 5 0.00 0.00
7:39 am 07:39 Cloudy with Mist and Fog 35 1.7 35 1.7 100 100 ENE 9 15 29.97 1015 2 3 0.00 0.00
7:46 am 07:46 Cloudy with Mist and Fog 35 1.7 35 1.7 100 100 ENE 13 20 29.94 1014 2 2 0.00 0.00
7:53 am 07:53 Cloudy with Mist and Fog 35 1.7 35 1.7 100 100 ENE 10 17 29.93 1014 2 3 0.00 0.00
8:05 am 08:05 Cloudy with Mist and Fog 35 1.7 35 1.7 100 100 ENE 8 13 29.94 1014 3 4 0.00 0.00
8:46 am 08:46 Cloudy with Mist and Fog 36 2.2 36 2.2 100 100 ESE 8 13 29.94 1014 3 5 0.00 0.00
8:53 am 08:53 Cloudy with Mist and Fog 36 2.2 36 2.2 100 100 SE 6 9 29.94 1014 3 5 0.00 0.00
9:53 am 09:53 Cloudy with Mist and Fog 37 2.8 37 2.8 100 100 NE 5 7 29.95 1014 5 8 0.00 0.00
10:23 am 10:23 Cloudy with Mist and Fog 37 2.8 37 2.8 100 100 N 9 15 29.97 1015 2 3 0.00 0.00
10:30 am 10:30 Cloudy with Mist and Fog 37 3 37 3 100 100 N 9 15 29.97 1015 2 2 0.00 0.00
10:49 am 10:49 Cloudy with Mist and Fog 37 3 37 3 100 100 NNE 9 15 29.97 1015 3 4 0.00 0.00
10:53 am 10:53 Cloudy with Mist and Fog 37 2.8 37 2.8 100 100 NNE 8 13 29.95 1014 3 4 0.00 0.00
11:01 am 11:01 Cloudy with Mist and Fog 37 2.8 37 2.8 100 100 NNE 8 13 29.97 1015 3 5 0.00 0.00
11:53 am 11:53 Cloudy with Mist and Fog 38 3.3 38 3.3 100 100 NNE 12 19 29.93 1014 4 6 0.00 0.00
12:39 pm 12:39 Cloudy with Mist and Fog 38 3.3 37 2.8 97 97 N 7 11 29.97 1015 6 10 0.00 0.00
12:53 pm 12:53 Cloudy with Mist and Fog 38 3.3 37 2.8 97 97 N 7 11 29.96 1015 5 8 0.00 0.00
1:42 pm 13:42 Cloudy with Mist and Fog 39 3.9 38 3.3 96 96 N 9 15 29.97 1015 4 6 0.00 0.00
1:53 pm 13:53 Cloudy with Mist and Fog 39 3.9 38 3.3 96 96 N 9 15 29.93 1014 4 6 0.00 0.00
2:16 pm 14:16 Cloudy with Mist and Fog 39 3.9 38 3.3 96 96 N 10 17 29.97 1015 3 4 0.00 0.00
2:48 pm 14:48 Cloudy with Mist and Fog 37 3 37 3 100 100 N 9 15 29.97 1015 2 2 0.00 0.00
2:53 pm 14:53 Cloudy with Mist and Fog 39 3.9 38 3.3 96 96 N 12 19 29.93 1014 2 2 0.00 0.00
3:18 pm 15:18 Cloudy with Mist and Fog 39 3.9 38 3.3 96 96 N 9 15 29.97 1015 3 5 0.00 0.00
3:39 pm 15:39 Cloudy with Mist and Fog 39 3.9 38 3.3 96 96 N 12 19 29.94 1014 3 4 0.00 0.00
3:53 pm 15:53 Cloudy with Mist and Fog 39 3.9 39 3.9 100 100 N 10 17 29.92 1013 2 3 0.00 0.00
4:06 pm 16:06 Cloudy with Mist and Fog 39 4 37 3 93 93 N 12 19 29.97 1015 4 6 0.00 0.00
4:53 pm 16:53 Cloudy with Mist and Fog 39 3.9 38 3.3 96 96 N 12 19 29.93 1014 4 6 0.00 0.00
5:05 pm 17:05 Cloudy with Mist and Fog 40 4.4 39 3.9 97 97 N 9 15 29.97 1015 4 6 0.00 0.00
5:53 pm 17:53 Cloudy with Mist and Fog 40 4.4 39 3.9 97 97 N 12 19 29.94 1014 6 10 0.00 0.00
6:50 pm 18:50 Cloudy with Mist and Fog 41 5 39 4 93 93 NNE 10 17 29.97 1015 5 8 0.00 0.00
6:53 pm 18:53 Cloudy with Mist and Fog 40 4.4 39 3.9 97 97 NNE 9 15 29.96 1015 5 8 0.00 0.00
7:53 pm 19:53 Cloudy with Mist and Fog 40 4.4 39 3.9 97 97 NNE 7 11 29.99 1016 6 10 0.00 0.00
8:08 pm 20:08 Cloudy 39 4 39 4 100 100 NNE 6 9 30.03 1017 7 11 0.00 0.00
8:53 pm 20:53 Cloudy 40 4.4 39 3.9 97 97 NNE 7 11 30.02 1017 7 11 0.00 0.00
9:43 pm 21:43 Cloudy with Mist and Fog 40 4.4 38 3.3 93 93 NNE 6 9 30.06 1018 6 10 0.00 0.00
9:53 pm 21:53 Cloudy with Mist and Fog 40 4.4 38 3.3 93 93 NNE 7 11 30.04 1017 6 10 0.00 0.00
10:53 pm 22:53 Cloudy with Mist and Fog 40 4.4 39 3.9 97 97 N 5 7 30.06 1018 6 10 0.00 0.00
11:53 pm 23:53 Clear with Mist and Fog 35 1.7 35 1.7 100 100 NW 5 7 30.08 1019 3 5 0.00 0.00

Powered by AerisWeather